User: anonymous   Login
Location: Владивосток
(43.1151°N, 131.8856°E)
Time: 19:28:38
(UTC+10:00)
Language:

KAITUO 1B - Orbit

View from above orbital plane
View from above orbital plane
View from above satellite
View from above satellite

Ground track
Ground track

The orbit data is extracted from the following two-line orbital elements,

1 40912U 15049P   22177.96899201  .00008995  00000-0  34910-3 0  9999
2 40912  97.4363 189.3247 0010661 268.2137 156.4511 15.26281025375209
Epoch (UTC): 26 June 2022 23:15:20
Eccentricity: 0.0010661
inclination: 97.4363°
perigee height: 479 km
apogee height: 494 km
right ascension of ascending node: 189.3247°
argument of perigee: 268.2137°
revolutions per day: 15.26281025
mean anomaly at epoch: 156.4511°
orbit number at epoch: 37520

The dashed part of the orbit path shows where the satellite is in the earth's shadow,  

DLR